Regional Weather Roundup
Issued by NWS

Home | Current Version | Previous Version | Text Only | Print | Product List | Glossary On
Versions: 1 2 3 4 5 6 7 8 9 10 11 12 13 14 15 16 17 18 19 20 21 22 23 24 25 26 27 28 29 30 31 32 33 34 35 36 37 38 39 40 41 42 43 44 45 46 47 48 49 50
870
ASUS44 KJAN 310810
RWRMS

MISSISSIPPI HOURLY WEATHER ROUNDUP
NATIONAL WEATHER SERVICE JACKSON MS
300 AM CDT SUN AUG 31 2014

NOTE: "FAIR: INDICATES FEW OR NO CLOUDS BELOW 12,000 FEET WITH NO
SIGNIFICANT WEATHER AND/OR OBSTRUCTIONS TO VISIBILITY.

MSZ001>002-007>008-010>013-018>021-025>028-034>036-310900-
NORTHWEST MISSISSIPPI

CITY           SKY/WX    TMP DP  RH WIND       PRES   REMARKS
CLARKSDALE     CLOUDY    75  75 100 S9G16     29.99S
CLEVELAND      CLOUDY    74  74 100 S8        30.00R
GREENWOOD      PTCLDY    73  71  93 S6        30.02S
GREENVILLE     CLOUDY    73  72  94 S8        30.00R
GRENADA        FAIR      72  70  94 S3        30.02F
OLIVE BRANCH   CLOUDY    72 N/A N/A S12       29.99F
OXFORD         CLOUDY    72  70  94 S5        30.03S
TUNICA         CLOUDY    73  72  94 S10       29.98S
$$

MSZ003>006-009-014>017-022>024-029>033-037>039-310900-
NORTHEAST MISSISSIPPI

CITY           SKY/WX    TMP DP  RH WIND       PRES   REMARKS
BELMONT        PTSUNNY   71  69  95 S5        30.06S
COLUMBUS AFB   MOCLDY    72  72 100 S6        30.06S
CORINTH        CLOUDY    73  70  88 S9        30.03S
GOLDN TRIANGLE MOCLDY    72  68  88 S10       30.07R
STARKVILLE     FAIR      70  70 100 S6        30.06S
TUPELO         CLOUDY    73  71  93 S6        30.04F
$$

MSZ040-058-310900-
CENTRAL MISSISSIPPI

CITY           SKY/WX    TMP DP  RH WIND       PRES   REMARKS
JACKSON INTL   CLOUDY    74  72  93 SE9       30.03F
JACKSON HAWKNS CLOUDY    74  71  91 SE9       30.04S
MERIDIAN KEY   CLOUDY    73  71  93 CALM      30.08S
MERIDIAN NAS   MOCLDY    72  71  97 CALM      30.08S
RAYMOND        FAIR      73  68  83 MISG      30.03S
VICKSBURG      CLOUDY    74  71  91 S6        30.01S
$$

MSZ059>079-310900-
SOUTH MISSISSIPPI

CITY           SKY/WX    TMP DP  RH WIND       PRES   REMARKS
BROOKHAVEN     FAIR      72  72 100 CALM      30.07S
HATTIESBURG    MOCLDY    74  72  93 CALM      30.07S
MCCOMB         MOCLDY    73  71  93 CALM      30.06R
NATCHEZ        CLOUDY    73  70  88 SE10      30.03R
PINE BELT      MOCLDY   N/A N/A N/A CALM      30.07F
$$

MSZ080>082-310900-
COASTAL MISSISSIPPI

CITY           SKY/WX    TMP DP  RH WIND       PRES   REMARKS
BILOXI         MOCLDY    83  78  86 S6        30.04S HX  93
PASCAGOULA     MOCLDY    74  74 100 CALM      30.05S
GULFPORT       MOCLDY    76  74  93 SE3       30.04S
$$



USA.gov is the U.S. government's official web portal to all federal, state and local government web resources and services.